Saranac Lake, NY

11:26 PM EDT on July 23, 2017 (GMT -0400)
Adirondack Regional

Weather History for KSLK - August, 2013

Change the Weather History Date:

Thursday, August 22, 2013

  Actual Average Record
Temperature  
Mean Temperature 66 °F 61 °F  
Max Temperature 79 °F 74 °F 88 °F (1955)
Min Temperature 53 °F 48 °F 33 °F (1957)
Degree Days  
Heating Degree Days 0 5  
Month to date heating degree days 94  
Since 1 June heating degree days 372  
Since 1 July heating degree days 188  
Cooling Degree Days 1 1  
Month to date cooling degree days 10 22  
Year to date cooling degree days 156 97  
Since 1 June cooling degree days 146 94  
Growing Degree Days 15 (Base 50)    
Moisture  
Dew Point 59 °F    
Average Humidity 82    
Maximum Humidity 100    
Minimum Humidity 64    
Precipitation  
Precipitation 0.30 in 0.13 in 1.59 in (2010)
Month to date precipitation 2.85 2.92  
Year to date precipitation 28.57 23.31  
Sea Level Pressure  
Sea Level Pressure 29.96 in    
Wind  
Wind Speed 5 mph (SW)    
Max Wind Speed 16 mph    
Max Gust Speed 30 mph    
Visibility 4 miles    
Events Fog , Rain , Thunderstorm    
T = Trace of Precipitation, MM = Missing Value Source: NWS Daily Summary

Daily Weather History Graph

Daily Weather History Graph

Search for Another Location

Airport or City:

Trip Planner

Search our weather history database for the weather conditions in past years. The results will help you decide how hot, cold, wet, or windy it might be!

Date:

Astronomy

Aug. 22, 2013 Rise Set
Actual Time 6:08 AM EDT 7:50 PM EDT
Civil Twilight 5:37 AM EDT 8:20 PM EDT
Nautical Twilight 4:59 AM EDT 8:58 PM EDT
Astronomical Twilight 4:19 AM EDT 9:38 PM EDT
Moon 8:24 PM EDT (8/22) 8:00 AM EDT (8/22)
Length of Visible Light 14h 43m
Length of Day
13h 41m
Waning Gibbous, 97% of the Moon is Illuminated
Aug 22
Waning Gibbous
Aug 28
Last Quarter
Sep 5
New
Sep 12
First Quarter
Sep 19
Full

Hourly Weather History & Observations

Time (EDT) Temp. Dew Point Humidity Pressure Visibility Wind Dir Wind Speed Gust Speed Precip Events Conditions
12:26 AM 57.2 °F 57.2 °F 100% 30.06 in 2.5 mi Calm Calm - N/A   Clear
12:39 AM 57.2 °F 57.2 °F 100% 30.06 in 4.0 mi Calm Calm - N/A   Clear
12:51 AM 60.1 °F 59.0 °F 96% 30.04 in 1.8 mi Calm Calm - N/A   Clear
1:08 AM 57.2 °F 57.2 °F 100% 30.06 in 3.0 mi Calm Calm - N/A   Clear
1:38 AM 59.0 °F 57.2 °F 94% 30.05 in 2.5 mi Calm Calm - N/A   Clear
1:47 AM 57.2 °F 57.2 °F 100% 30.05 in 5.0 mi Calm Calm - N/A   Clear
1:51 AM 57.0 °F 55.9 °F 96% 30.03 in 5.0 mi Calm Calm - N/A   Clear
2:02 AM 55.4 °F 55.4 °F 100% 30.05 in 1.5 mi Calm Calm - N/A   Clear
2:10 AM 55.4 °F 55.4 °F 100% 30.05 in 0.2 mi Calm Calm - N/A Fog Fog
2:20 AM 55.4 °F 55.4 °F 100% 30.05 in 0.5 mi Calm Calm - N/A Fog Fog
2:25 AM 55.4 °F 55.4 °F 100% 30.05 in 1.2 mi Calm Calm - N/A   Scattered Clouds
2:28 AM 55.4 °F 55.4 °F 100% 30.05 in 3.0 mi Calm Calm - N/A   Scattered Clouds
2:31 AM 55.4 °F 55.4 °F 100% 30.05 in 1.5 mi Calm Calm - N/A   Mostly Cloudy
2:34 AM 55.4 °F 55.4 °F 100% 30.04 in 0.2 mi Calm Calm - N/A Fog Fog
2:51 AM 57.0 °F 57.0 °F 100% 30.02 in 0.2 mi Calm Calm - N/A Fog Fog
3:02 AM 55.4 °F 55.4 °F 100% 30.04 in 1.0 mi SSW 3.5 mph - N/A   Mist
3:04 AM 55.4 °F 55.4 °F 100% 30.03 in 2.0 mi SSW 3.5 mph - N/A   Partly Cloudy
3:11 AM 57.2 °F 55.4 °F 94% 30.03 in 6.0 mi SSW 3.5 mph - N/A   Clear
3:51 AM 55.0 °F 55.0 °F 100% 30.00 in 5.0 mi SW 5.8 mph - N/A   Clear
4:31 AM 55.4 °F 55.4 °F 100% 30.00 in 2.0 mi SW 4.6 mph - N/A   Clear
4:48 AM 55.4 °F 55.4 °F 100% 29.99 in 1.0 mi Calm Calm - N/A   Clear
4:51 AM 55.0 °F 54.0 °F 96% 29.98 in 0.8 mi West 3.5 mph - N/A   Mist
5:05 AM 55.4 °F 55.4 °F 100% 29.99 in 0.8 mi Calm Calm - N/A   Clear
5:11 AM 55.4 °F 55.4 °F 100% 29.99 in 2.5 mi Calm Calm - N/A   Clear
5:18 AM 55.4 °F 55.4 °F 100% 29.99 in 3.0 mi Calm Calm - N/A   Clear
5:21 AM 55.4 °F 55.4 °F 100% 29.99 in 0.8 mi Calm Calm - N/A   Mist
5:29 AM 55.4 °F 55.4 °F 100% 29.98 in 0.2 mi Calm Calm - N/A Fog Fog
5:35 AM 55.4 °F 55.4 °F 100% 29.99 in 1.0 mi Calm Calm - N/A   Mist
5:42 AM 57.2 °F 55.4 °F 94% 29.98 in 0.2 mi Calm Calm - N/A Fog Fog
5:51 AM 55.0 °F 55.0 °F 100% 29.97 in 0.2 mi Calm Calm - N/A Fog Fog
6:11 AM 55.4 °F 55.4 °F 100% 29.99 in 1.0 mi WSW 3.5 mph - N/A   Mist
6:23 AM 53.6 °F 53.6 °F 100% 29.99 in 2.5 mi WSW 5.8 mph - N/A   Partly Cloudy
6:51 AM 53.1 °F 52.0 °F 96% 29.97 in 4.0 mi SW 3.5 mph - N/A   Clear
7:04 AM 57.2 °F 57.2 °F 100% 29.99 in 2.5 mi WSW 4.6 mph - N/A   Clear
7:21 AM 62.6 °F 59.0 °F 88% 29.99 in 4.0 mi WSW 4.6 mph - N/A   Clear
7:51 AM 64.0 °F 60.1 °F 87% 29.99 in 6.0 mi SW 3.5 mph - N/A   Clear
8:51 AM 69.1 °F 60.1 °F 73% 29.98 in 7.0 mi SW 9.2 mph - N/A   Clear
9:51 AM 72.0 °F 62.1 °F 71% 29.96 in 7.0 mi SW 10.4 mph - N/A   Clear
10:51 AM 75.9 °F 63.0 °F 64% 29.95 in 7.0 mi SW 11.5 mph 18.4 mph N/A   Scattered Clouds
11:51 AM 77.0 °F 64.0 °F 64% 29.94 in 6.0 mi Variable 6.9 mph - N/A   Haze
12:51 PM 75.0 °F 64.0 °F 69% 29.91 in 6.0 mi WSW 8.1 mph - N/A   Haze
1:47 PM 75.2 °F 62.6 °F 65% 29.90 in 7.0 mi SW 12.7 mph 23.0 mph N/A Thunderstorm Thunderstorm
1:51 PM 77.0 °F 64.0 °F 64% 29.88 in 7.0 mi WSW 15.0 mph 23.0 mph N/A Thunderstorm Thunderstorm
2:06 PM 68.0 °F 64.4 °F 88% 29.92 in 1.8 mi Variable 6.9 mph 18.4 mph 0.04 in Rain , Thunderstorm Thunderstorms and Rain
2:15 PM 64.4 °F 62.6 °F 94% 29.93 in 0.8 mi West 6.9 mph 18.4 mph 0.14 in Rain , Thunderstorm Heavy Thunderstorms and Rain
2:20 PM 64.4 °F 62.6 °F 94% 29.93 in 2.0 mi WNW 6.9 mph 18.4 mph 0.14 in Rain , Thunderstorm Light Thunderstorms and Rain
2:27 PM 64.4 °F 62.6 °F 94% 29.93 in 5.0 mi Variable 6.9 mph - 0.14 in Rain , Thunderstorm Light Rain
2:41 PM 64.4 °F 62.6 °F 94% 29.93 in 6.0 mi Variable 5.8 mph - 0.14 in Rain , Thunderstorm Light Rain
2:51 PM 64.0 °F 63.0 °F 96% 29.92 in 8.0 mi Variable 5.8 mph - 0.15 in Rain Light Rain
2:58 PM 64.4 °F 62.6 °F 94% 29.93 in 7.0 mi WSW 5.8 mph - 0.00 in   Overcast
3:08 PM 64.4 °F 62.6 °F 94% 29.93 in 6.0 mi WSW 5.8 mph - 0.00 in Rain Light Rain
3:32 PM 64.4 °F 62.6 °F 94% 29.92 in 2.0 mi West 3.5 mph - 0.05 in Rain Rain
3:49 PM 64.4 °F 62.6 °F 94% 29.93 in 5.0 mi WSW 6.9 mph - 0.06 in Rain Light Rain
3:51 PM 64.0 °F 63.0 °F 96% 29.92 in 6.0 mi SW 8.1 mph - 0.06 in Rain Light Rain
4:41 PM 66.2 °F 64.4 °F 94% 29.90 in 10.0 mi WSW 8.1 mph - 0.00 in   Mostly Cloudy
4:51 PM 64.9 °F 63.0 °F 93% 29.90 in 10.0 mi WSW 6.9 mph - 0.01 in   Mostly Cloudy
5:02 PM 64.4 °F 62.6 °F 94% 29.91 in 7.0 mi SW 8.1 mph - 0.00 in Rain Light Rain
5:28 PM 64.4 °F 62.6 °F 94% 29.90 in 2.5 mi WSW 4.6 mph - 0.02 in Rain Rain
5:41 PM 64.4 °F 62.6 °F 94% 29.90 in 4.0 mi SW 8.1 mph - 0.03 in Rain Light Rain
5:49 PM 64.4 °F 62.6 °F 94% 29.90 in 8.0 mi SW 5.8 mph - 0.03 in Rain Light Rain
5:51 PM 64.0 °F 63.0 °F 96% 29.90 in 8.0 mi SW 6.9 mph - 0.03 in Rain Light Rain
5:59 PM 64.4 °F 62.6 °F 94% 29.91 in 9.0 mi SW 8.1 mph - N/A   Overcast
6:07 PM 64.4 °F 62.6 °F 94% 29.91 in 9.0 mi SW 9.2 mph - N/A   Overcast
6:17 PM 64.4 °F 62.6 °F 94% 29.90 in 9.0 mi WSW 6.9 mph - N/A   Mostly Cloudy
6:27 PM 64.4 °F 62.6 °F 94% 29.91 in 9.0 mi SW 8.1 mph - N/A   Overcast
6:51 PM 63.0 °F 62.1 °F 97% 29.91 in 8.0 mi SW 6.9 mph - N/A   Overcast
7:21 PM 62.6 °F 62.6 °F 100% 29.91 in 5.0 mi SW 5.8 mph - 0.01 in Rain Light Rain
7:51 PM 64.0 °F 63.0 °F 96% 29.88 in 6.0 mi SW 8.1 mph - 0.01 in   Overcast
8:51 PM 63.0 °F 63.0 °F 100% 29.91 in 7.0 mi WSW 4.6 mph - N/A   Mostly Cloudy
9:36 PM 62.6 °F 62.6 °F 100% 29.93 in 7.0 mi Calm Calm - N/A   Mostly Cloudy
9:49 PM 62.6 °F 60.8 °F 94% 29.94 in 2.5 mi Calm Calm - 0.04 in Rain Light Rain
9:51 PM 63.0 °F 61.0 °F 93% 29.91 in 2.0 mi Variable 3.5 mph - 0.04 in Rain Rain
9:59 PM 62.6 °F 62.6 °F 100% 29.94 in 4.0 mi Variable 3.5 mph - 0.00 in Rain Light Rain
10:09 PM 62.6 °F 62.6 °F 100% 29.93 in 8.0 mi Calm Calm - 0.00 in   Overcast
10:17 PM 62.6 °F 62.6 °F 100% 29.93 in 7.0 mi Calm Calm - 0.00 in   Overcast
10:27 PM 62.6 °F 60.8 °F 94% 29.94 in 7.0 mi Calm Calm - 0.00 in   Mostly Cloudy
10:51 PM 62.1 °F 61.0 °F 96% 29.92 in 7.0 mi Calm Calm - 0.00 in   Clear
11:24 PM 60.8 °F 60.8 °F 100% 29.95 in 6.0 mi Calm Calm - N/A   Mostly Cloudy
11:51 PM 61.0 °F 60.1 °F 97% 29.94 in 6.0 mi Calm Calm - N/A   Mostly Cloudy